Regional Weather Roundup
Issued by NWS

Home | Current Version | Previous Version | Text Only | Print | Product List | Glossary On
Versions: 1 2 3 4 5 6 7 8 9 10 11 12 13 14 15 16 17 18 19 20 21 22 23 24 25 26 27 28 29 30 31 32 33 34 35 36 37 38 39 40 41 42 43 44 45 46 47 48 49 50
000
ASUS44 KFWD 250303
RWRTX
NORTH TEXAS HOURLY WEATHER ROUNDUP
NATIONAL WEATHER SERVICE FORT WORTH TX
1000 PM CDT MON APR 24 2017

NOTE: "FAIR" INDICATES FEW OR NO CLOUDS BELOW 12,000 FEET WITH NO
SIGNIFICANT WEATHER AND/OR OBSTRUCTIONS TO VISIBILITY.

TXZ118-119-250400-
DALLAS/FORT WORTH METROPLEX

CITY           SKY/WX    TMP DP  RH WIND       PRES   REMARKS
DFW AIRPORT    PTCLDY    70  51  51 S12       29.65R
DALLAS LOVE    PTCLDY    71  50  47 S14       29.67R
FTW MEACHAM    CLEAR     70  52  52 SE12      29.64S
DAL-EXECUTIVE  CLEAR     69  50  50 S10G20    29.67R
FTW-ALLIANCE   PTCLDY    69  51  52 S13       29.64S
FTW-NAS-JRB    CLEAR     72  51  47 SE12      29.65R
FTW-SPINKS     CLEAR     68  51  54 SE8       29.67R
ARLINGTON      CLEAR     68  51  54 SE7       29.66R
GRAND PRAIRIE  CLEAR     69  50  49 SE8       29.68R
MESQUITE       CLEAR     64  50  60 S7        29.68S
LANCASTER      CLEAR     62  52  70 SE5       29.69R
$$

TXZ091>094-102>105-117-120-121-131>134-250400-
NORTH CENTRAL TEXAS

CITY           SKY/WX    TMP DP  RH WIND       PRES   REMARKS
SHRMAN/DENISON CLEAR     66  49  54 SE13      29.66F
GAINESVILLE    CLEAR     63  52  67 S10       29.65F
BOWIE          CLOUDY    68  52  56 S12G17    29.61S
BRIDGEPORT     CLEAR     67  51  56 SE9       29.64F
DECATUR        CLEAR     68  50  53 SE12      29.64S
DENTON         CLEAR     67  52  58 SE14      29.64F
MCKINNEY       CLEAR     64  52  64 S8        29.67S
BONHAM         CLEAR     63  50  63 S9        29.69R
GREENVILLE     CLEAR     68  52  56 S7        29.69S
ROCKWALL       CLEAR     64  53  65 SE6       29.69R
TERRELL        CLEAR     63  51  65 S5        29.69S
WAXAHACHIE     CLEAR     66  52  61 S9        29.69R
CLEBURNE       CLEAR     66  54  63 S12G18    29.67S
GRANBURY       CLEAR     71  52  51 SE10G16   29.65R
$$

TXZ083>090-098>101-113>116-127>130-139>142-154-155-250400-
WESTERN NORTH TEXAS

CITY           SKY/WX    TMP DP  RH WIND       PRES   REMARKS
WICHITA FALLS  CLOUDY    69  50  50 SE17      29.54F
WF-KICKAPOO    CLOUDY    70  51  52 SE16      29.56F
VERNON         CLOUDY    74  45  34 SE16      29.51F
ABILENE        CLEAR     72  52  49 S18       29.60R
GRAHAM         CLEAR     70  53  54 SE12G18   29.58S
BRECKENRIDGE   CLEAR     73  50  45 S17G23    29.59F
CISCO          CLEAR     72  50  46 S16G24    29.63S
RANGER         CLEAR     69  51  52 S10G18    29.65R
MINERAL WELLS  CLEAR     68  50  52 SE14      29.62S
STEPHENVILLE   CLEAR     67  52  57 S9        29.68R
COMANCHE       CLEAR     68  52  55 S6        29.67R
COLEMAN        CLEAR     71  51  48 S13G18    29.65S
$$

TXZ143>147-156>162-174-175-250400-
CENTRAL TEXAS

CITY           SKY/WX    TMP DP  RH WIND       PRES   REMARKS
WACO           PTCLDY    69  53  56 S15       29.68F
WACO-TSTC      CLEAR     66  54  63 S8        29.69F
WACO-MCGREGOR  PTCLDY    67  53  61 S10       29.69F
HILLSBORO      CLOUDY    66  54  63 SE9       29.67F
CORSICANA      CLEAR     67  52  58 S14       29.70F
MEXIA          CLEAR     63  51  65 S14       29.71S
HEARNE         PTCLDY    66  52  60 SE7       29.72F
CAMERON        PTCLDY    68  52  56 S8        29.71S
TEMPLE         PTCLDY    68  53  58 S14       29.70F
KILLEEN        PTCLDY    66  52  59 S10       29.68S
KILLEEN-SKYLRK CLEAR     69  53  56 S9        29.70S
FORT HOOD      CLEAR     68  52  56 S8        29.67R
HAMILTON       CLOUDY    67  52  57 S13       29.68S
LAMPASAS       PTCLDY    68  55  62 S3        29.70S
$$

TXZ095>097-106>112-122>126-135>138-148>153-164>167-250400-
EAST TEXAS

CITY           SKY/WX    TMP DP  RH WIND       PRES   REMARKS
PARIS          CLEAR     61  48  63 SE8       29.70S
SULPHUR SPRNGS CLEAR     67  51  57 S6        29.72S
MOUNT PLEASANT CLEAR     61  51  70 SE6       29.73S
GILMER         PTCLDY    64  50  60 S5        29.72F THUNDER
MINEOLA        CLEAR     66  50  55 SE5       29.70F
TYLER          PTCLDY    65  50  58 S9        29.72S
LONGVIEW       CLEAR     63  51  65 S7        29.73S
MARSHALL       CLEAR     55  49  81 CALM      29.76S
ATHENS         CLEAR     61  52  72 SE3       29.71S
PALESTINE      CLEAR     64  52  63 SE3       29.74S
JACKSONVILLE   CLEAR     65  51  60 S6        29.76S
HENDERSON      CLEAR     60  51  71 CALM      29.75S
CENTER         CLEAR     61  55  80 CALM      29.77R HAZE
NACOGDOCHES    CLEAR     61  52  72 CALM      29.74R
LUFKIN         CLEAR     63  52  67 SE7       29.76S
$$

SUPPLEMENTAL OBSERVATIONS (CENTRAL)

CITY           SKY/WX    TMP DP  RH WIND       PRES   REMARKS
$$

SUPPLEMENTAL OBSERVATIONS (WEST)

CITY           SKY/WX    TMP DP  RH WIND       PRES   REMARKS
$$

SUPPLEMENTAL OBSERVATIONS (EAST)

CITY           SKY/WX    TMP DP  RH WIND       PRES   REMARKS
$$

SUPPLEMENTAL OBSERVATIONS ARE A COLLECTION OF AUTOMATED INSTRUMENTS
THAT ARE MAINTAINED BY A VARIETY OF FEDERAL AND STATE AGENCIES.
CERTAIN ELEMENTS...SUCH AS HUMIDITY VALUES AND SUSTAINED WIND
SPEEDS...MAY BE APPROXIMATED.





USA.gov is the U.S. government's official web portal to all federal, state and local government web resources and services.